• In Hungary
  • List of Countries
  • For 7 days
  • Water Temperature
  • Satellite Maps
  • Weather Map
  • News
  • Weather Widgets
  • user-avatar
    Login

    Hourly Weather Truto

    Today, 16 December, Saturday

    Time Temperature Precipitation Wind Pressure Humidity
    00:00 +1°C° 0 mm 8 mps 759 mmHg 82%
    01:00 +1°C° 0 mm 8 mps 760 mmHg 83%
    02:00 +2°C° 0 mm 8 mps 760 mmHg 83%
    03:00 +2°C° 0 mm 9 mps 760 mmHg 84%
    04:00 +2°C° 0 mm 9 mps 761 mmHg 84%
    05:00 +1°C° 0 mm 9 mps 761 mmHg 84%
    06:00 +1°C° 0 mm 8 mps 762 mmHg 87%
    07:00 +2°C° 0 mm 7 mps 762 mmHg 86%
    08:00 +2°C° 0 mm 7 mps 763 mmHg 86%
    09:00 +2°C° 0 mm 7 mps 763 mmHg 86%
    10:00 +3°C° 0 mm 7 mps 764 mmHg 82%
    11:00 +4°C° 0 mm 7 mps 764 mmHg 77%
    12:00 +7°C° 0 mm 6 mps 764 mmHg 72%
    13:00 +6°C° 0 mm 7 mps 764 mmHg 76%
    14:00 +5°C° 0 mm 8 mps 764 mmHg 79%
    15:00 +5°C° 0 mm 9 mps 764 mmHg 82%
    16:00 +6°C° 0.1 mm 9 mps 765 mmHg 82%
    17:00 +6°C° 0.1 mm 9 mps 765 mmHg 83%
    18:00 +6°C° 0.1 mm 9 mps 765 mmHg 83%
    19:00 +6°C° 0.1 mm 9 mps 765 mmHg 84%
    20:00 +5°C° 0.1 mm 8 mps 766 mmHg 85%
    21:00 +5°C° 0.1 mm 8 mps 766 mmHg 86%
    22:00 +5°C° 0.1 mm 7 mps 766 mmHg 87%
    23:00 +5°C° 0.1 mm 7 mps 766 mmHg 87%

    Tomorrow, 17 December, Sunday

    Time Temperature Precipitation Wind Pressure Humidity
    00:00 +7°C° 0.1 mm 6 mps 766 mmHg 88%
    01:00 +5°C° 0 mm 6 mps 766 mmHg 88%
    02:00 +5°C° 0 mm 6 mps 766 mmHg 89%
    03:00 +5°C° 0 mm 6 mps 766 mmHg 89%
    04:00 +5°C° 0 mm 6 mps 766 mmHg 90%
    05:00 +5°C° 0 mm 6 mps 766 mmHg 91%
    06:00 +5°C° 0 mm 6 mps 766 mmHg 91%
    07:00 +5°C° 0.1 mm 6 mps 766 mmHg 91%
    08:00 +6°C° 0.1 mm 7 mps 766 mmHg 91%
    09:00 +8°C° 0.1 mm 7 mps 766 mmHg 91%
    10:00 +7°C° 0.3 mm 8 mps 766 mmHg 91%
    11:00 +7°C° 0.3 mm 8 mps 766 mmHg 91%
    12:00 +7°C° 0.3 mm 9 mps 766 mmHg 91%
    13:00 +8°C° 0.6 mm 9 mps 765 mmHg 93%
    14:00 +8°C° 0.6 mm 9 mps 765 mmHg 94%
    15:00 +8°C° 0.6 mm 9 mps 765 mmHg 95%
    16:00 +8°C° 0.1 mm 9 mps 765 mmHg 96%
    17:00 +10°C° 0.1 mm 8 mps 765 mmHg 97%
    18:00 +10°C° 0.1 mm 7 mps 765 mmHg 97%
    19:00 +10°C° 0 mm 7 mps 765 mmHg 97%
    20:00 +10°C° 0 mm 6 mps 765 mmHg 97%
    21:00 +11°C° 0 mm 6 mps 766 mmHg 97%
    22:00 +12°C° 0 mm 5 mps 766 mmHg 97%
    23:00 +10°C° 0 mm 5 mps 767 mmHg 97%

    Day after tomorrow, 18 December, Monday

    Time Temperature Precipitation Wind Pressure Humidity
    00:00 +10°C° 0 mm 5 mps 767 mmHg 97%
    01:00 +10°C° 0 mm 5 mps 767 mmHg 98%
    02:00 +11°C° 0 mm 4 mps 767 mmHg 98%
    03:00 +10°C° 0 mm 3 mps 767 mmHg 98%
    04:00 +10°C° 0 mm 3 mps 768 mmHg 98%
    05:00 +10°C° 0 mm 2 mps 768 mmHg 98%
    06:00 +10°C° 0 mm 2 mps 768 mmHg 98%
    07:00 +10°C° 0 mm 2 mps 768 mmHg 97%
    08:00 +11°C° 0 mm 1 mps 769 mmHg 97%
    09:00 +11°C° 0 mm 1 mps 769 mmHg 96%
    10:00 +10°C° 0 mm 2 mps 769 mmHg 94%
    11:00 +12°C° 0 mm 2 mps 769 mmHg 92%
    12:00 +12°C° 0 mm 2 mps 770 mmHg 90%
    13:00 +12°C° 0 mm 2 mps 770 mmHg 91%
    14:00 +12°C° 0 mm 2 mps 769 mmHg 93%
    15:00 +12°C° 0 mm 2 mps 769 mmHg 94%
    16:00 +12°C° 0.1 mm 2 mps 770 mmHg 95%
    17:00 +11°C° 0.1 mm 3 mps 770 mmHg 95%
    18:00 +10°C° 0.1 mm 3 mps 770 mmHg 96%
    19:00 +10°C° 0.1 mm 3 mps 770 mmHg 96%
    20:00 +10°C° 0.1 mm 3 mps 770 mmHg 96%
    21:00 +10°C° 0.1 mm 3 mps 771 mmHg 96%
    22:00 +10°C° 0.1 mm 3 mps 771 mmHg 96%
    23:00 +11°C° 0.1 mm 3 mps 771 mmHg 97%

    19 December, Tuesday

    Time Temperature Precipitation Wind Pressure Humidity
    00:00 +11°C° 0.1 mm 3 mps 771 mmHg 98%
    01:00 +11°C° 0.1 mm 3 mps 771 mmHg 98%
    02:00 +11°C° 0.1 mm 3 mps 771 mmHg 98%
    03:00 +11°C° 0.1 mm 3 mps 772 mmHg 98%
    04:00 +11°C° 0.1 mm 3 mps 772 mmHg 98%
    05:00 +11°C° 0.1 mm 3 mps 772 mmHg 98%
    06:00 +11°C° 0.1 mm 3 mps 772 mmHg 98%
    07:00 +12°C° 0.1 mm 3 mps 772 mmHg 98%
    08:00 +12°C° 0.1 mm 4 mps 772 mmHg 98%
    09:00 +12°C° 0.1 mm 4 mps 773 mmHg 98%
    10:00 +12°C° 0 mm 4 mps 773 mmHg 98%
    11:00 +13°C° 0 mm 4 mps 773 mmHg 98%
    12:00 +13°C° 0 mm 4 mps 773 mmHg 97%
    13:00 +13°C° 0 mm 4 mps 773 mmHg 97%
    14:00 +13°C° 0 mm 4 mps 773 mmHg 96%
    15:00 +13°C° 0 mm 4 mps 773 mmHg 96%
    16:00 +13°C° 0 mm 4 mps 773 mmHg 97%
    17:00 +13°C° 0 mm 4 mps 773 mmHg 97%
    18:00 +12°C° 0 mm 3 mps 773 mmHg 98%
    19:00 +12°C° 0 mm 3 mps 774 mmHg 98%
    20:00 +12°C° 0 mm 4 mps 774 mmHg 98%
    21:00 +12°C° 0 mm 4 mps 774 mmHg 98%
    22:00 +12°C° 0 mm 3 mps 774 mmHg 98%
    23:00 +12°C° 0 mm 3 mps 774 mmHg 98%

    20 December, Wednesday

    Time Temperature Precipitation Wind Pressure Humidity
    00:00 +12°C° 0 mm 3 mps 774 mmHg 98%
    01:00 +12°C° 0 mm 3 mps 774 mmHg 98%
    02:00 +12°C° 0 mm 3 mps 774 mmHg 98%
    03:00 +12°C° 0 mm 3 mps 774 mmHg 97%
    04:00 +12°C° 0 mm 3 mps 774 mmHg 97%
    05:00 +12°C° 0 mm 4 mps 774 mmHg 97%
    06:00 +12°C° 0 mm 4 mps 774 mmHg 97%
    07:00 +12°C° 0 mm 4 mps 774 mmHg 97%
    08:00 +12°C° 0 mm 4 mps 775 mmHg 96%
    09:00 +12°C° 0 mm 4 mps 775 mmHg 96%
    10:00 +12°C° 0 mm 5 mps 775 mmHg 94%
    11:00 +13°C° 0 mm 5 mps 775 mmHg 92%
    12:00 +13°C° 0 mm 5 mps 775 mmHg 90%
    13:00 +13°C° 0 mm 5 mps 775 mmHg 91%
    14:00 +13°C° 0 mm 5 mps 774 mmHg 92%
    15:00 +13°C° 0 mm 5 mps 774 mmHg 93%
    16:00 +13°C° 0 mm 5 mps 774 mmHg 95%
    17:00 +13°C° 0 mm 5 mps 774 mmHg 96%
    18:00 +12°C° 0 mm 5 mps 775 mmHg 97%
    19:00 +11°C° 0 mm 6 mps 775 mmHg 96%
    20:00 +11°C° 0 mm 6 mps 775 mmHg 96%
    21:00 +11°C° 0 mm 6 mps 775 mmHg 96%
    22:00 +11°C° 0 mm 6 mps 775 mmHg 95%
    23:00 +11°C° 0 mm 6 mps 775 mmHg 95%

    21 December, Thursday

    Time Temperature Precipitation Wind Pressure Humidity
    00:00 +11°C° 0 mm 6 mps 775 mmHg 95%
    01:00 +11°C° 0 mm 6 mps 774 mmHg 95%
    02:00 +11°C° 0 mm 7 mps 774 mmHg 95%
    03:00 +11°C° 0 mm 7 mps 774 mmHg 95%
    04:00 +11°C° 0 mm 7 mps 774 mmHg 95%
    05:00 +11°C° 0 mm 7 mps 774 mmHg 95%
    06:00 +11°C° 0 mm 8 mps 773 mmHg 94%
    07:00 +11°C° 0.1 mm 8 mps 773 mmHg 94%
    08:00 +11°C° 0.1 mm 8 mps 774 mmHg 94%
    09:00 +11°C° 0.1 mm 8 mps 774 mmHg 93%
    10:00 +11°C° 0.1 mm 9 mps 773 mmHg 92%
    11:00 +11°C° 0.1 mm 9 mps 773 mmHg 91%
    12:00 +11°C° 0.1 mm 9 mps 773 mmHg 90%
    13:00 +11°C° 0 mm 10 mps 772 mmHg 89%
    14:00 +11°C° 0 mm 10 mps 772 mmHg 87%
    15:00 +11°C° 0 mm 10 mps 772 mmHg 86%
    16:00 +11°C° 0.1 mm 10 mps 772 mmHg 89%
    17:00 +11°C° 0.1 mm 10 mps 772 mmHg 92%
    18:00 +11°C° 0.1 mm 9 mps 773 mmHg 94%
    19:00 +10°C° 0 mm 9 mps 773 mmHg 90%
    20:00 +8°C° 0 mm 9 mps 774 mmHg 87%
    21:00 +7°C° 0 mm 9 mps 775 mmHg 83%
    22:00 +7°C° 0 mm 9 mps 776 mmHg 84%
    23:00 +6°C° 0 mm 8 mps 776 mmHg 85%
    Show more